contact:dominique.lefevre@mio.osupytheas.fr, maurice.libes@osupytheas.fr, didier.mallarino@osupytheas.fr
Project:EMSO http://www.emso-fr.org/EMSO-France
Depth: 2436.0 m
Title:EMSO Ligure Ouest : Data MII capteur AQUADOPP
Date,Latitude,Longitude,X_East,Y_North,Z_Up,Amplitude_X,Amplitude_Y,Amplitude_Z,Batterie,SoundSpeed,Heading,Pitch,Roll,Pressure,TIS,Speed,Direction
, degrees North, degrees East, m.s-1, m.s-1,m.s-1, 1, 1, 1, Volt, m.s-1, degree, degree, degree, dbar, degree_C, m.s-1, degree
2023-01-20T00:04:03,42.805,6.029,-0.022,-0.025,-0.004,101.0,102.0,102.0,13.3,1505.2,317.0,-0.8,1.8,2471.033,13.28,0.033,221.3
2023-01-20T00:07:03,42.805,6.029,-0.017,-0.021,-0.013,103.0,102.0,101.0,13.4,1505.2,328.2,-0.7,1.8,2471.078,13.28,0.027,219.0
2023-01-20T00:10:03,42.805,6.029,-0.029,-0.024,0.007,102.0,102.0,102.0,13.4,1505.2,321.5,-0.8,1.8,2471.042,13.28,0.037,230.4
2023-01-20T00:13:03,42.805,6.029,-0.023,-0.019,-0.019,101.0,102.0,101.0,13.3,1505.2,326.3,-0.7,1.8,2471.003,13.29,0.029,230.4
2023-01-20T00:16:03,42.805,6.029,-0.007,-0.041,-0.007,102.0,103.0,102.0,13.4,1505.2,335.5,-0.8,1.8,2470.989,13.29,0.041,189.7
2023-01-20T00:19:03,42.805,6.029,-0.012,-0.025,-0.02,102.0,102.0,102.0,13.4,1505.2,335.0,-0.8,1.9,2471.006,13.29,0.027,205.6
2023-01-20T00:22:03,42.805,6.029,-0.009,-0.031,-0.042,102.0,102.0,102.0,13.3,1505.2,323.4,-0.8,1.8,2471.003,13.29,0.032,196.2
2023-01-20T00:25:03,42.805,6.029,0.0,-0.024,-0.03,102.0,102.0,102.0,13.4,1505.2,329.0,-0.7,1.8,2471.02,13.29,0.024,180.0
2023-01-20T00:28:03,42.805,6.029,-0.004,-0.021,-0.041,102.0,102.0,102.0,13.4,1505.2,317.5,-0.8,1.8,2470.992,13.29,0.021,190.8
2023-01-20T00:31:03,42.805,6.029,-0.037,-0.028,-0.017,103.0,103.0,103.0,13.4,1505.2,325.3,-0.7,1.8,2470.998,13.29,0.046,232.9
2023-01-20T00:34:03,42.805,6.029,0.015,-0.039,-0.027,104.0,103.0,102.0,13.3,1505.2,336.6,-0.8,1.8,2471.032,13.29,0.041,159.0
2023-01-20T00:37:03,42.805,6.029,-0.007,-0.018,-0.016,103.0,102.0,103.0,13.4,1505.2,321.0,-0.8,1.8,2471.032,13.29,0.019,201.2
2023-01-20T00:40:03,42.805,6.029,-0.016,-0.038,-0.004,103.0,103.0,102.0,13.4,1505.2,324.0,-0.8,1.8,2471.006,13.29,0.041,202.8
2023-01-20T00:43:03,42.805,6.029,-0.007,-0.05,-0.023,103.0,102.0,102.0,13.4,1505.2,322.3,-0.8,1.9,2470.976,13.29,0.05,188.0
2023-01-20T00:46:03,42.805,6.029,-0.013,-0.016,-0.029,103.0,102.0,101.0,13.4,1505.2,334.1,-0.8,1.8,2471.055,13.29,0.02,219.1
2023-01-20T00:49:03,42.805,6.029,0.0,-0.025,-0.011,103.0,102.0,102.0,13.3,1505.2,320.3,-0.8,1.8,2471.027,13.29,0.025,180.0
2023-01-20T00:52:03,42.805,6.029,0.016,-0.026,-0.043,103.0,103.0,102.0,13.4,1505.2,327.0,-0.7,1.8,2470.994,13.29,0.03,148.4
2023-01-20T00:55:03,42.805,6.029,-0.003,-0.022,-0.015,102.0,102.0,101.0,13.3,1505.2,328.9,-0.8,1.8,2471.049,13.29,0.022,187.8
2023-01-20T00:58:03,42.805,6.029,-0.006,-0.026,-0.024,102.0,103.0,102.0,13.4,1505.2,330.2,-0.7,1.8,2471.033,13.29,0.026,193.0
2023-01-20T01:04:03,42.805,6.029,0.003,-0.037,-0.063,103.0,103.0,102.0,13.4,1505.2,325.2,-0.8,1.8,2471.039,13.28,0.037,175.4
2023-01-20T01:07:03,42.805,6.029,0.006,-0.021,-0.019,102.0,103.0,102.0,13.4,1505.2,322.6,-0.8,1.8,2471.071,13.28,0.021,164.1
2023-01-20T01:10:03,42.805,6.029,-0.006,-0.027,-0.003,102.0,102.0,101.0,13.4,1505.2,334.5,-0.7,1.8,2471.08,13.28,0.027,192.5
2023-01-20T01:13:03,42.805,6.029,0.003,-0.04,-0.014,103.0,103.0,102.0,13.4,1505.2,331.0,-0.7,1.8,2471.046,13.29,0.04,175.7
2023-01-20T01:16:03,42.805,6.029,-0.007,-0.013,-0.01,103.0,104.0,101.0,13.4,1505.2,323.1,-0.8,1.8,2471.081,13.29,0.014,208.3
2023-01-20T01:19:03,42.805,6.029,0.001,-0.028,-0.008,103.0,104.0,102.0,13.4,1505.2,333.0,-0.7,1.8,2471.054,13.29,0.028,178.0
2023-01-20T01:22:03,42.805,6.029,-0.033,-0.017,-0.027,104.0,103.0,102.0,13.4,1505.2,326.8,-0.8,1.8,2471.033,13.29,0.037,242.7
2023-01-20T01:25:03,42.805,6.029,0.0,-0.015,0.008,103.0,103.0,103.0,13.4,1505.2,338.0,-0.7,1.8,2471.059,13.29,0.015,180.0
2023-01-20T01:28:03,42.805,6.029,-0.02,-0.004,-0.006,103.0,104.0,102.0,13.3,1505.2,337.7,-0.8,1.8,2471.086,13.29,0.02,258.7
2023-01-20T01:31:03,42.805,6.029,0.01,-0.023,-0.016,104.0,103.0,102.0,13.4,1505.2,323.2,-0.8,1.8,2471.032,13.29,0.025,156.5
2023-01-20T01:34:03,42.805,6.029,0.0,-0.045,-0.007,103.0,102.0,104.0,13.3,1505.2,337.7,-0.8,1.8,2471.035,13.29,0.045,180.0
2023-01-20T01:37:03,42.805,6.029,0.015,-0.028,-0.007,103.0,102.0,102.0,13.3,1505.2,317.5,-0.8,1.8,2471.05,13.29,0.031,151.8
2023-01-20T01:40:03,42.805,6.029,0.001,-0.025,0.018,104.0,102.0,102.0,13.4,1505.2,326.0,-0.8,1.8,2471.044,13.29,0.025,177.7
2023-01-20T01:43:03,42.805,6.029,0.011,-0.026,0.012,103.0,102.0,102.0,13.4,1505.2,323.6,-0.8,1.8,2471.067,13.29,0.028,157.1
2023-01-20T01:46:03,42.805,6.029,0.007,-0.029,-0.004,104.0,103.0,102.0,13.3,1505.2,324.7,-0.8,1.8,2471.076,13.29,0.029,166.4
2023-01-20T01:49:03,42.805,6.029,-0.012,-0.035,0.005,104.0,104.0,103.0,13.4,1505.2,327.9,-0.8,1.8,2471.076,13.29,0.037,198.9
2023-01-20T01:52:03,42.805,6.029,0.0,-0.029,0.015,103.0,103.0,102.0,13.4,1505.2,333.8,-0.7,1.8,2471.06,13.29,0.028,180.0
2023-01-20T01:55:03,42.805,6.029,0.005,-0.017,-0.008,104.0,103.0,102.0,13.4,1505.2,337.5,-0.7,1.9,2471.085,13.29,0.017,163.6
2023-01-20T01:58:03,42.805,6.029,-0.012,-0.02,0.013,104.0,103.0,102.0,13.3,1505.2,332.6,-0.8,1.8,2471.07,13.29,0.023,211.0
2023-01-20T02:04:03,42.805,6.029,0.0,-0.027,-0.009,104.0,103.0,104.0,13.3,1505.2,330.2,-0.8,1.8,2471.139,13.28,0.026,180.0
2023-01-20T02:07:03,42.805,6.029,0.002,-0.021,-0.019,104.0,103.0,102.0,13.3,1505.2,320.6,-0.8,1.8,2471.133,13.28,0.021,174.6
2023-01-20T02:10:03,42.805,6.029,-0.004,-0.018,-0.022,103.0,103.0,102.0,13.4,1505.2,316.5,-0.8,1.8,2471.137,13.28,0.018,192.5
2023-01-20T02:13:03,42.805,6.029,-0.018,-0.031,-0.015,103.0,103.0,103.0,13.4,1505.2,324.3,-0.8,1.8,2471.114,13.28,0.035,210.1
2023-01-20T02:16:03,42.805,6.029,-0.006,-0.008,-0.027,103.0,102.0,102.0,13.4,1505.2,328.0,-0.8,1.8,2471.134,13.29,0.01,216.9
2023-01-20T02:19:03,42.805,6.029,-0.01,-0.008,0.0,104.0,102.0,103.0,13.4,1505.2,326.7,-0.8,1.8,2471.147,13.29,0.012,231.3
2023-01-20T02:22:03,42.805,6.029,-0.017,-0.041,-0.038,104.0,103.0,102.0,13.3,1505.2,326.7,-0.7,1.8,2471.108,13.29,0.044,202.5
2023-01-20T02:25:03,42.805,6.029,0.003,-0.026,0.002,103.0,103.0,102.0,13.4,1505.2,335.5,-0.7,1.8,2471.085,13.29,0.026,173.4
2023-01-20T02:28:03,42.805,6.029,-0.006,-0.025,-0.033,104.0,104.0,102.0,13.4,1505.2,322.1,-0.8,1.8,2471.13,13.29,0.025,193.5
2023-01-20T02:31:03,42.805,6.029,0.002,-0.033,-0.014,104.0,104.0,102.0,13.4,1505.2,322.9,-0.8,1.8,2471.127,13.29,0.033,176.5
2023-01-20T02:34:03,42.805,6.029,-0.007,-0.035,-0.013,105.0,104.0,103.0,13.3,1505.2,334.1,-0.7,1.8,2471.112,13.29,0.035,191.3
2023-01-20T02:37:03,42.805,6.029,0.013,-0.031,-0.032,104.0,103.0,102.0,13.3,1505.2,318.5,-0.8,1.8,2471.097,13.29,0.033,157.3
2023-01-20T02:40:03,42.805,6.029,-0.004,-0.015,-0.017,103.0,103.0,103.0,13.3,1505.2,329.5,-0.8,1.8,2471.157,13.29,0.015,194.9
2023-01-20T02:43:03,42.805,6.029,-0.01,-0.03,-0.016,103.0,103.0,102.0,13.4,1505.2,332.2,-0.8,1.8,2471.115,13.29,0.031,198.4
2023-01-20T02:46:03,42.805,6.029,-0.019,-0.022,-0.016,103.0,103.0,102.0,13.4,1505.2,335.4,-0.8,1.8,2471.069,13.29,0.029,220.8
2023-01-20T02:49:03,42.805,6.029,0.017,-0.024,-0.011,103.0,104.0,102.0,13.3,1505.2,317.5,-0.8,1.8,2471.076,13.29,0.029,144.7
2023-01-20T02:52:03,42.805,6.029,0.009,-0.031,-0.023,104.0,103.0,102.0,13.3,1505.2,336.5,-0.8,1.8,2471.117,13.29,0.032,163.8
2023-01-20T02:55:03,42.805,6.029,-0.017,-0.026,-0.013,104.0,103.0,102.0,13.4,1505.2,326.9,-0.7,1.8,2471.117,13.29,0.031,213.2
2023-01-20T02:58:03,42.805,6.029,-0.003,-0.021,0.006,104.0,103.0,103.0,13.4,1505.2,320.3,-0.8,1.8,2471.121,13.29,0.021,188.1
2023-01-20T03:04:03,42.805,6.029,-0.011,-0.03,0.002,105.0,104.0,102.0,13.4,1505.2,318.6,-0.8,1.8,2471.144,13.28,0.031,200.1
2023-01-20T03:07:03,42.805,6.029,0.011,-0.031,-0.016,104.0,104.0,102.0,13.4,1505.2,329.9,-0.8,1.8,2471.168,13.28,0.032,160.5
2023-01-20T03:10:03,42.805,6.029,0.019,-0.011,-0.005,103.0,103.0,103.0,13.4,1505.2,332.0,-0.8,1.8,2471.159,13.28,0.021,120.1
2023-01-20T03:13:03,42.805,6.029,0.009,-0.026,-0.01,104.0,102.0,102.0,13.4,1505.2,322.5,-0.8,1.8,2471.127,13.29,0.027,160.9
2023-01-20T03:16:03,42.805,6.029,-0.003,-0.037,0.0,104.0,104.0,102.0,13.3,1505.2,323.9,-0.8,1.8,2471.199,13.29,0.037,184.6
2023-01-20T03:19:03,42.805,6.029,-0.018,-0.026,-0.018,103.0,105.0,102.0,13.4,1505.2,336.3,-0.8,1.8,2471.215,13.29,0.031,214.7
2023-01-20T03:22:03,42.805,6.029,-0.006,-0.027,0.001,104.0,103.0,102.0,13.3,1505.2,320.5,-0.7,1.8,2471.158,13.29,0.027,192.5
2023-01-20T03:25:03,42.805,6.029,-0.016,-0.043,-0.013,104.0,103.0,103.0,13.4,1505.2,330.1,-0.8,1.8,2471.166,13.29,0.045,200.4
2023-01-20T03:28:03,42.805,6.029,-0.001,-0.02,-0.007,104.0,103.0,102.0,13.4,1505.2,334.2,-0.8,1.8,2471.142,13.29,0.02,182.9
2023-01-20T03:31:03,42.805,6.029,0.031,-0.028,0.034,104.0,102.0,104.0,13.4,1505.2,331.8,-0.8,1.8,2471.15,13.29,0.041,132.1
2023-01-20T03:34:03,42.805,6.029,-0.017,-0.029,-0.007,104.0,102.0,103.0,13.4,1505.2,334.2,-0.8,1.8,2471.196,13.29,0.033,210.4
2023-01-20T03:37:03,42.805,6.029,0.0,-0.048,-0.021,104.0,103.0,103.0,13.4,1505.2,331.0,-0.8,1.8,2471.197,13.29,0.048,180.0
2023-01-20T03:40:03,42.805,6.029,-0.009,-0.043,-0.042,104.0,105.0,103.0,13.4,1505.2,337.0,-0.8,1.8,2471.166,13.29,0.043,191.8
2023-01-20T03:43:03,42.805,6.029,-0.004,-0.033,-0.008,104.0,104.0,103.0,13.4,1505.2,319.4,-0.8,1.8,2471.174,13.29,0.033,186.9
2023-01-20T03:46:03,42.805,6.029,-0.007,-0.037,-0.002,104.0,103.0,102.0,13.3,1505.2,330.5,-0.8,1.8,2471.17,13.29,0.037,190.7
2023-01-20T03:49:03,42.805,6.029,-0.011,-0.027,-0.013,104.0,104.0,102.0,13.4,1505.2,334.6,-0.7,1.8,2471.178,13.29,0.029,202.2
2023-01-20T03:52:03,42.805,6.029,0.006,-0.046,-0.016,103.0,104.0,102.0,13.3,1505.2,316.0,-0.7,1.8,2471.204,13.29,0.046,172.6
2023-01-20T03:55:03,42.805,6.029,-0.006,-0.028,-0.019,104.0,103.0,102.0,13.4,1505.2,327.2,-0.8,1.8,2471.16,13.29,0.028,192.1
2023-01-20T03:58:03,42.805,6.029,-0.026,-0.028,-0.022,103.0,104.0,102.0,13.4,1505.2,338.3,-0.8,1.8,2471.192,13.29,0.038,222.9
2023-01-20T04:04:03,42.805,6.029,-0.004,-0.03,0.011,104.0,103.0,103.0,13.4,1505.2,318.0,-0.8,1.8,2471.211,13.28,0.03,187.6
2023-01-20T04:07:03,42.805,6.029,-0.007,-0.031,-0.015,105.0,103.0,102.0,13.4,1505.2,327.8,-0.8,1.8,2471.255,13.28,0.031,192.7
2023-01-20T04:10:03,42.805,6.029,-0.009,-0.023,-0.023,104.0,103.0,103.0,13.4,1505.2,325.2,-0.8,1.8,2471.238,13.28,0.024,201.4
2023-01-20T04:13:03,42.805,6.029,-0.011,-0.038,-0.017,104.0,103.0,103.0,13.4,1505.2,326.3,-0.8,1.8,2471.223,13.29,0.039,196.1
2023-01-20T04:16:03,42.805,6.029,-0.005,-0.031,-0.031,104.0,104.0,103.0,13.4,1505.2,330.2,-0.7,1.8,2471.22,13.29,0.031,189.2
2023-01-20T04:19:03,42.805,6.029,0.013,-0.031,-0.001,104.0,104.0,101.0,13.4,1505.2,315.5,-0.7,1.8,2471.214,13.29,0.033,157.3
2023-01-20T04:22:03,42.805,6.029,-0.009,-0.024,-0.011,103.0,103.0,102.0,13.4,1505.2,335.9,-0.8,1.8,2471.244,13.29,0.025,200.6
2023-01-20T04:25:03,42.805,6.029,0.007,-0.046,-0.014,104.0,103.0,103.0,13.4,1505.2,317.0,-0.8,1.8,2471.24,13.29,0.046,171.3
2023-01-20T04:28:03,42.805,6.029,-0.018,-0.048,-0.004,103.0,104.0,102.0,13.4,1505.2,330.2,-0.8,1.8,2471.214,13.29,0.051,200.6
2023-01-20T04:31:03,42.805,6.029,-0.026,-0.021,0.002,103.0,104.0,103.0,13.3,1505.2,334.6,-0.8,1.8,2471.227,13.29,0.033,231.1
2023-01-20T04:34:03,42.805,6.029,0.001,-0.028,-0.012,104.0,104.0,103.0,13.3,1505.2,327.2,-0.7,1.8,2471.177,13.29,0.028,178.0
2023-01-20T04:37:03,42.805,6.029,-0.007,-0.038,-0.022,104.0,102.0,103.0,13.4,1505.2,331.4,-0.8,1.8,2471.217,13.29,0.038,190.4
2023-01-20T04:40:03,42.805,6.029,0.003,-0.037,-0.003,105.0,102.0,102.0,13.4,1505.2,318.6,-0.8,1.8,2471.18,13.29,0.037,175.4
2023-01-20T04:43:03,42.805,6.029,-0.012,-0.033,0.011,104.0,104.0,102.0,13.4,1505.2,335.8,-0.8,1.8,2471.181,13.29,0.035,200.0
2023-01-20T04:46:03,42.805,6.029,0.006,-0.055,-0.036,103.0,103.0,103.0,13.4,1505.2,317.6,-0.7,1.8,2471.214,13.29,0.055,173.8
2023-01-20T04:49:03,42.805,6.029,-0.024,-0.046,-0.029,104.0,104.0,102.0,13.4,1505.2,318.8,-0.8,1.8,2471.232,13.29,0.051,207.6
2023-01-20T04:52:03,42.805,6.029,-0.013,-0.023,-0.016,104.0,103.0,103.0,13.4,1505.2,328.0,-0.8,1.8,2471.225,13.29,0.026,209.5
2023-01-20T04:55:03,42.805,6.029,0.01,-0.045,-0.022,104.0,103.0,102.0,13.4,1505.2,323.7,-0.8,1.8,2471.224,13.29,0.046,167.5
2023-01-20T04:58:03,42.805,6.029,-0.018,-0.027,-0.021,104.0,104.0,103.0,13.3,1505.2,332.5,-0.8,1.8,2471.235,13.29,0.032,213.7
2023-01-20T05:04:03,42.805,6.029,-0.022,-0.018,-0.014,104.0,103.0,103.0,13.4,1505.2,327.8,-0.8,1.8,2471.28,13.28,0.028,230.7
2023-01-20T05:07:03,42.805,6.029,0.005,-0.042,-0.012,104.0,103.0,102.0,13.3,1505.2,325.3,-0.8,1.8,2471.29,13.28,0.042,173.2
2023-01-20T05:10:03,42.805,6.029,-0.03,-0.037,-0.016,104.0,103.0,102.0,13.4,1505.2,330.6,-0.8,1.8,2471.301,13.28,0.047,219.0
2023-01-20T05:13:03,42.805,6.029,-0.011,-0.007,-0.016,103.0,103.0,102.0,13.4,1505.2,329.9,-0.7,1.8,2471.279,13.28,0.013,237.5
2023-01-20T05:16:03,42.805,6.029,-0.004,-0.022,-0.002,103.0,102.0,103.0,13.4,1505.2,323.2,-0.8,1.8,2471.292,13.28,0.022,190.3
2023-01-20T05:19:03,42.805,6.029,-0.03,-0.033,-0.012,104.0,103.0,102.0,13.3,1505.2,338.0,-0.8,1.8,2471.248,13.29,0.044,222.3
2023-01-20T05:22:03,42.805,6.029,-0.008,-0.028,-0.005,103.0,103.0,102.0,13.4,1505.2,323.6,-0.7,1.8,2471.268,13.29,0.029,195.9
2023-01-20T05:25:03,42.805,6.029,-0.023,-0.04,-0.027,104.0,102.0,103.0,13.3,1505.2,334.8,-0.8,1.8,2471.259,13.29,0.046,209.9
2023-01-20T05:28:03,42.805,6.029,-0.006,-0.019,-0.039,103.0,103.0,102.0,13.4,1505.2,316.1,-0.8,1.8,2471.25,13.29,0.019,197.5
2023-01-20T05:31:03,42.805,6.029,0.004,-0.025,0.016,103.0,103.0,102.0,13.4,1505.2,335.0,-0.8,1.8,2471.243,13.29,0.025,170.9
2023-01-20T05:34:03,42.805,6.029,-0.004,-0.04,-0.007,104.0,103.0,103.0,13.4,1505.2,325.6,-0.7,1.8,2471.307,13.29,0.04,185.7
2023-01-20T05:37:03,42.805,6.029,-0.021,-0.019,0.006,104.0,104.0,103.0,13.4,1505.2,331.8,-0.8,1.8,2471.25,13.29,0.028,227.9
2023-01-20T05:40:03,42.805,6.029,0.0,-0.035,-0.02,103.0,103.0,102.0,13.4,1505.2,319.0,-0.7,1.8,2471.237,13.29,0.035,180.0
2023-01-20T05:43:03,42.805,6.029,-0.024,-0.033,-0.029,103.0,103.0,102.0,13.4,1505.2,333.4,-0.7,1.8,2471.235,13.29,0.04,216.0
2023-01-20T05:46:03,42.805,6.029,-0.008,-0.031,-0.004,103.0,104.0,103.0,13.3,1505.2,322.8,-0.8,1.8,2471.252,13.29,0.032,194.5
2023-01-20T05:49:03,42.805,6.029,-0.005,-0.022,-0.001,104.0,103.0,102.0,13.4,1505.2,331.3,-0.8,1.8,2471.25,13.29,0.022,192.8
2023-01-20T05:52:03,42.805,6.029,-0.03,-0.024,-0.022,103.0,103.0,102.0,13.4,1505.2,330.7,-0.8,1.8,2471.287,13.29,0.038,231.3
2023-01-20T05:55:03,42.805,6.029,-0.026,-0.03,-0.024,102.0,104.0,102.0,13.4,1505.2,335.7,-0.8,1.8,2471.27,13.29,0.039,220.9
2023-01-20T05:58:03,42.805,6.029,-0.004,-0.051,-0.033,103.0,102.0,103.0,13.4,1505.2,319.6,-0.8,1.8,2471.283,13.29,0.051,184.5
2023-01-20T06:04:03,42.805,6.029,-0.01,-0.028,-0.025,102.0,103.0,102.0,13.4,1505.2,332.1,-0.7,1.8,2471.346,13.28,0.029,199.6
2023-01-20T06:07:03,42.805,6.029,-0.006,-0.031,-0.012,104.0,102.0,102.0,13.4,1505.2,327.7,-0.8,1.8,2471.309,13.28,0.031,191.0
2023-01-20T06:10:03,42.805,6.029,-0.006,-0.002,-0.006,103.0,102.0,103.0,13.4,1505.2,331.0,-0.8,1.8,2471.28,13.28,0.006,251.6
2023-01-20T06:13:03,42.805,6.029,-0.017,-0.024,-0.011,103.0,104.0,102.0,13.4,1505.2,335.0,-0.8,1.8,2471.314,13.28,0.029,215.3
2023-01-20T06:16:03,42.805,6.029,-0.012,-0.034,-0.006,103.0,103.0,103.0,13.3,1505.2,322.2,-0.8,1.8,2471.302,13.29,0.036,199.4
2023-01-20T06:19:03,42.805,6.029,-0.01,-0.031,0.012,104.0,103.0,102.0,13.4,1505.2,333.0,-0.8,1.8,2471.285,13.29,0.032,197.9
2023-01-20T06:22:03,42.805,6.029,-0.012,-0.027,-0.017,104.0,103.0,102.0,13.4,1505.2,337.5,-0.7,1.8,2471.264,13.29,0.029,204.0
2023-01-20T06:25:03,42.805,6.029,-0.016,-0.029,-0.001,104.0,103.0,102.0,13.3,1505.2,337.5,-0.8,1.8,2471.262,13.29,0.033,208.9
2023-01-20T06:28:03,42.805,6.029,-0.026,-0.016,-0.004,103.0,104.0,102.0,13.4,1505.2,322.2,-0.8,1.8,2471.268,13.29,0.03,238.4
2023-01-20T06:31:03,42.805,6.029,-0.024,-0.019,-0.015,104.0,103.0,103.0,13.4,1505.2,332.2,-0.8,1.8,2471.263,13.29,0.03,231.6
2023-01-20T06:34:03,42.805,6.029,-0.007,-0.027,0.013,103.0,104.0,103.0,13.4,1505.2,315.0,-0.8,1.8,2471.308,13.29,0.027,194.5
2023-01-20T06:37:03,42.805,6.029,-0.017,-0.029,0.002,104.0,103.0,103.0,13.3,1505.2,338.5,-0.8,1.8,2471.29,13.29,0.033,210.4
2023-01-20T06:40:03,42.805,6.029,-0.021,-0.049,-0.059,104.0,104.0,102.0,13.4,1505.2,319.1,-0.8,1.8,2471.275,13.29,0.053,203.2
2023-01-20T06:43:03,42.805,6.029,-0.007,-0.043,-0.01,104.0,103.0,103.0,13.4,1505.2,322.5,-0.8,1.9,2471.284,13.29,0.043,189.2
2023-01-20T06:46:03,42.805,6.029,-0.018,-0.024,0.004,104.0,103.0,103.0,13.3,1505.2,335.2,-0.8,1.8,2471.269,13.29,0.03,216.9
2023-01-20T06:49:03,42.805,6.029,-0.006,-0.028,-0.025,104.0,103.0,103.0,13.3,1505.2,322.9,-0.8,1.8,2471.272,13.29,0.028,192.1
2023-01-20T06:52:03,42.805,6.029,-0.005,-0.04,0.004,104.0,104.0,102.0,13.3,1505.2,329.5,-0.8,1.8,2471.253,13.29,0.04,187.1
2023-01-20T06:55:03,42.805,6.029,0.012,-0.031,-0.005,104.0,102.0,102.0,13.3,1505.2,321.7,-0.8,1.8,2471.287,13.29,0.033,158.8
2023-01-20T06:58:03,42.805,6.029,-0.005,-0.045,-0.012,104.0,104.0,103.0,13.4,1505.2,327.0,-0.8,1.9,2471.275,13.29,0.045,186.3
2023-01-20T07:04:03,42.805,6.029,-0.031,-0.05,0.0,104.0,104.0,103.0,13.3,1505.2,326.8,-0.8,1.8,2471.357,13.28,0.058,211.8
2023-01-20T07:07:03,42.805,6.029,-0.024,-0.034,-0.004,105.0,103.0,102.0,13.4,1505.2,322.6,-0.8,1.8,2471.322,13.28,0.041,215.2
2023-01-20T07:10:03,42.805,6.029,-0.001,-0.045,-0.025,104.0,103.0,103.0,13.3,1505.2,326.5,-0.8,1.8,2471.293,13.28,0.045,181.3
2023-01-20T07:13:03,42.805,6.029,-0.008,-0.025,-0.001,104.0,104.0,103.0,13.3,1505.2,337.8,-0.8,1.8,2471.339,13.28,0.026,197.7
2023-01-20T07:16:03,42.805,6.029,-0.022,-0.044,-0.02,105.0,102.0,103.0,13.4,1505.2,322.6,-0.8,1.8,2471.264,13.29,0.049,206.6
2023-01-20T07:19:03,42.805,6.029,-0.014,-0.019,-0.01,105.0,103.0,103.0,13.4,1505.2,328.8,-0.8,1.8,2471.288,13.29,0.023,216.4
2023-01-20T07:22:03,42.805,6.029,-0.014,-0.02,0.019,103.0,104.0,103.0,13.4,1505.2,318.8,-0.7,1.8,2471.264,13.29,0.024,215.0
2023-01-20T07:25:03,42.805,6.029,0.001,-0.047,-0.018,104.0,104.0,102.0,13.4,1505.2,319.2,-0.7,1.8,2471.26,13.29,0.047,178.8
2023-01-20T07:28:03,42.805,6.029,-0.024,-0.037,-0.01,103.0,102.0,103.0,13.3,1505.2,322.5,-0.7,1.9,2471.271,13.29,0.044,213.0
2023-01-20T07:31:03,42.805,6.029,-0.042,-0.043,-0.044,103.0,104.0,103.0,13.3,1505.2,336.5,-0.7,1.8,2471.292,13.29,0.06,224.3
2023-01-20T07:34:03,42.805,6.029,-0.012,-0.054,-0.002,105.0,104.0,102.0,13.4,1505.2,329.8,-0.8,1.8,2471.293,13.29,0.055,192.5
2023-01-20T07:37:03,42.805,6.029,-0.036,-0.05,-0.047,104.0,105.0,101.0,13.4,1505.2,326.9,-0.8,1.8,2471.268,13.29,0.061,215.8
2023-01-20T07:40:03,42.805,6.029,-0.029,-0.022,-0.037,104.0,102.0,103.0,13.4,1505.2,328.2,-0.8,1.8,2471.244,13.29,0.036,232.8
2023-01-20T07:43:03,42.805,6.029,-0.047,-0.028,-0.035,104.0,103.0,103.0,13.3,1505.2,330.2,-0.8,1.8,2471.291,13.29,0.054,239.2
2023-01-20T07:46:03,42.805,6.029,-0.02,-0.051,-0.022,104.0,103.0,102.0,13.4,1505.2,324.5,-0.8,1.8,2471.277,13.29,0.054,201.4
2023-01-20T07:49:03,42.805,6.029,-0.024,-0.056,-0.036,104.0,103.0,102.0,13.4,1505.2,327.5,-0.8,1.8,2471.256,13.29,0.06,203.2
2023-01-20T07:52:03,42.805,6.029,-0.012,-0.036,-0.012,105.0,104.0,102.0,13.3,1505.2,321.4,-0.8,1.8,2471.273,13.29,0.037,198.4
2023-01-20T07:55:03,42.805,6.029,-0.028,-0.053,-0.031,105.0,104.0,101.0,13.4,1505.2,329.9,-0.7,1.8,2471.282,13.29,0.059,207.9
2023-01-20T07:58:03,42.805,6.029,-0.011,-0.035,-0.022,104.0,104.0,102.0,13.3,1505.2,316.5,-0.7,1.8,2471.296,13.29,0.036,197.4
2023-01-20T08:04:03,42.805,6.029,-0.016,-0.032,-0.028,104.0,104.0,103.0,13.4,1505.2,317.1,-0.8,1.8,2471.321,13.28,0.035,206.6
2023-01-20T08:07:03,42.805,6.029,-0.022,-0.045,-0.031,104.0,103.0,102.0,13.3,1505.2,332.2,-0.8,1.8,2471.296,13.28,0.05,206.1
2023-01-20T08:10:03,42.805,6.029,-0.016,-0.028,-0.015,105.0,104.0,103.0,13.3,1505.2,336.6,-0.7,1.8,2471.297,13.28,0.032,209.7
2023-01-20T08:13:03,42.805,6.029,0.005,-0.033,-0.033,104.0,104.0,103.0,13.4,1505.2,331.2,-0.8,1.8,2471.275,13.29,0.033,171.4
2023-01-20T08:16:03,42.805,6.029,-0.031,-0.037,-0.022,104.0,103.0,103.0,13.4,1505.2,335.7,-0.8,1.8,2471.3,13.29,0.048,220.0
2023-01-20T08:19:03,42.805,6.029,-0.013,-0.057,-0.031,104.0,103.0,103.0,13.3,1505.2,316.1,-0.7,1.8,2471.239,13.29,0.058,192.8
2023-01-20T08:22:03,42.805,6.029,-0.017,-0.033,-0.028,104.0,103.0,103.0,13.4,1505.2,321.0,-0.8,1.8,2471.256,13.29,0.037,207.3
2023-01-20T08:25:03,42.805,6.029,-0.035,-0.04,0.01,104.0,102.0,104.0,13.4,1505.2,337.3,-0.7,1.8,2471.279,13.29,0.053,221.2
2023-01-20T08:28:03,42.805,6.029,-0.007,-0.034,-0.017,104.0,103.0,102.0,13.4,1505.2,322.6,-0.8,1.8,2471.232,13.29,0.034,191.6
2023-01-20T08:31:03,42.805,6.029,-0.024,-0.034,-0.008,103.0,104.0,103.0,13.4,1505.2,325.8,-0.8,1.8,2471.221,13.29,0.041,215.2
2023-01-20T08:34:03,42.805,6.029,-0.029,-0.057,-0.032,104.0,102.0,103.0,13.3,1505.2,331.6,-0.7,1.8,2471.252,13.29,0.063,207.0
2023-01-20T08:37:03,42.805,6.029,-0.016,-0.031,-0.028,105.0,104.0,103.0,13.4,1505.2,324.6,-0.8,1.8,2471.24,13.29,0.034,207.3
2023-01-20T08:40:03,42.805,6.029,-0.026,-0.052,0.005,103.0,104.0,103.0,13.3,1505.2,338.7,-0.8,1.8,2471.239,13.29,0.058,206.6
2023-01-20T08:43:03,42.805,6.029,-0.02,-0.035,-0.022,104.0,104.0,103.0,13.4,1505.2,324.3,-0.8,1.8,2471.244,13.29,0.04,209.7
2023-01-20T08:46:03,42.805,6.029,-0.017,-0.049,-0.035,105.0,104.0,103.0,13.4,1505.2,333.8,-0.8,1.8,2471.255,13.29,0.051,199.1
2023-01-20T08:49:03,42.805,6.029,-0.013,-0.038,-0.021,103.0,104.0,103.0,13.4,1505.2,323.7,-0.8,1.8,2471.27,13.29,0.04,198.9
2023-01-20T08:52:03,42.805,6.029,-0.032,-0.031,-0.023,105.0,103.0,103.0,13.4,1505.2,320.1,-0.8,1.8,2471.28,13.29,0.044,225.9
2023-01-20T08:55:03,42.805,6.029,-0.013,-0.038,-0.008,103.0,105.0,103.0,13.3,1505.2,327.5,-0.8,1.8,2471.242,13.29,0.04,198.9
2023-01-20T08:58:03,42.805,6.029,-0.011,-0.047,0.018,104.0,104.0,103.0,13.3,1505.2,331.0,-0.8,1.8,2471.278,13.29,0.048,193.2
2023-01-20T09:04:03,42.805,6.029,-0.011,-0.038,-0.024,104.0,105.0,103.0,13.3,1505.2,333.4,-0.8,1.8,2471.301,13.28,0.039,196.1
2023-01-20T09:07:03,42.805,6.029,-0.017,-0.057,-0.031,104.0,104.0,103.0,13.3,1505.2,318.6,-0.8,1.8,2471.296,13.28,0.059,196.6
2023-01-20T09:10:03,42.805,6.029,-0.027,-0.028,-0.02,104.0,103.0,104.0,13.4,1505.2,330.0,-0.8,1.8,2471.281,13.28,0.038,224.0
2023-01-20T09:13:03,42.805,6.029,0.003,-0.041,-0.034,104.0,104.0,104.0,13.4,1505.2,325.6,-0.7,1.9,2471.254,13.29,0.041,175.8
2023-01-20T09:16:03,42.805,6.029,-0.018,-0.036,0.009,104.0,105.0,102.0,13.4,1505.2,334.6,-0.7,1.8,2471.261,13.29,0.04,206.6
2023-01-20T09:19:03,42.805,6.029,-0.05,-0.038,-0.009,104.0,104.0,102.0,13.3,1505.2,337.7,-0.7,1.8,2471.262,13.29,0.062,232.8
2023-01-20T09:22:03,42.805,6.029,-0.025,-0.038,-0.018,105.0,104.0,103.0,13.3,1505.2,328.5,-0.8,1.8,2471.238,13.29,0.045,213.3
2023-01-20T09:25:03,42.805,6.029,-0.009,-0.062,-0.037,105.0,103.0,103.0,13.4,1505.2,322.4,-0.7,1.8,2471.255,13.29,0.062,188.3
2023-01-20T09:28:03,42.805,6.029,-0.042,-0.035,-0.034,104.0,104.0,103.0,13.4,1505.2,331.9,-0.8,1.8,2471.252,13.29,0.054,230.2
2023-01-20T09:31:03,42.805,6.029,-0.041,-0.043,-0.024,103.0,102.0,103.0,13.4,1505.2,318.0,-0.8,1.8,2471.24,13.29,0.059,223.6
2023-01-20T09:34:03,42.805,6.029,-0.04,-0.026,-0.034,104.0,104.0,103.0,13.4,1505.2,329.4,-0.8,1.8,2471.246,13.29,0.047,237.0
2023-01-20T09:37:03,42.805,6.029,-0.023,-0.034,0.012,103.0,103.0,102.0,13.4,1505.2,317.0,-0.7,1.8,2471.247,13.29,0.041,214.1
2023-01-20T09:40:03,42.805,6.029,-0.023,-0.02,-0.012,104.0,103.0,102.0,13.3,1505.2,330.0,-0.8,1.8,2471.197,13.29,0.03,229.0
2023-01-20T09:43:03,42.805,6.029,-0.051,-0.008,0.006,104.0,103.0,102.0,13.4,1505.2,337.8,-0.7,1.8,2471.232,13.29,0.051,261.1
2023-01-20T09:46:03,42.805,6.029,-0.044,-0.038,-0.005,104.0,104.0,103.0,13.4,1505.2,328.5,-0.8,1.8,2471.221,13.29,0.058,229.2
2023-01-20T09:49:03,42.805,6.029,-0.024,-0.036,-0.048,104.0,103.0,102.0,13.4,1505.2,331.9,-0.8,1.8,2471.237,13.29,0.043,213.7
2023-01-20T09:52:03,42.805,6.029,-0.037,-0.035,0.004,104.0,102.0,102.0,13.4,1505.2,331.6,-0.7,1.8,2471.216,13.29,0.05,226.6